Hourly Data Report for September 20, 2017

All times are specified in Local Standard Time (LST). Add 1 hour to adjust for Daylight Saving Time where and when it is observed.

MISCOU ISLAND (AUT)
NEW BRUNSWICK

48°00'32.002" N
64°29'39.008" W
4.00 m
8103050
71719
WMI

Download Data

Hourly Data (September 2017)
Hourly Data Report for September 20, 2017
Temp Definition
°C
Dew Point Temp Definition
°C
Rel Hum Definition
%
Wind Dir Definition
10's deg

Wind Spd Definition
km/h
Visibility Definition
km
Stn Press Definition
kPa
Hmdx Definition


Wind Chill Definition


Weather Definition


TIME
00:00 15.3 14.6 95 21 9   101.90     LegendNANA
01:00 14.6 13.9 95 23 10   101.89     LegendNANA
02:00 13.7 13.0 96 21 10   101.85     LegendNANA
03:00 13.6 13.0 96 21 11   101.80     LegendNANA
04:00 14.6 14.0 96 23 10   101.78     LegendNANA
05:00 14.4 13.8 96 21 11   101.76     LegendNANA
06:00 15.7 15.0 96 22 10   101.78     LegendNANA
07:00 15.3 14.7 96 24 14   101.78     LegendNANA
08:00 16.9 16.3 96 24 14   101.78     LegendNANA
09:00 18.3 16.9 92 26 15   101.77     LegendNANA
10:00 17.8 15.9 89 26 21   101.78     LegendNANA
11:00 19.1 16.5 85 25 12   101.70     LegendNANA
12:00 20.4 17.0 81 26 10   101.68 26   LegendNANA
13:00 14.8 13.2 90 6 14   101.70     LegendNANA
14:00 15.5 13.5 88 9 10   101.68     LegendNANA
15:00 15.1 13.3 89 12 9   101.66     LegendNANA
16:00 15.3 13.3 88 14 10   101.65     LegendNANA
17:00 14.4 12.7 89 14 8   101.67     LegendNANA
18:00 14.1 12.5 90 15 8   101.67     LegendNANA
19:00 13.3 11.8 91 13 4   101.71     LegendNANA
20:00 11.5 10.4 93 26 7   101.72     LegendNANA
21:00 11.4 10.5 95 27 12   101.76     LegendNANA
22:00 12.7 11.9 95 26 15   101.82     LegendNANA
23:00 12.6 11.2 91 30 9   101.82     LegendNANA

Notes on Data Quality.

Legend

  • E = Estimated
  • M = Missing
  • NA = Not Available
  • ‡ = Partner data that is not subject to review by the National Climate Archives
Date modified: